Wetterdaten: Montag, 17.11.2014
Datum Zeit Temperatur Luftfeuchte Luftdruck Regen Wind Richtung Richtung Taupunkt Windchill Windben
17.11.2014 00:00 -1,6 C 93 % 1006,9 hPa 0,0 l/m 0,0 km/h (0 Bft) SO 135 -2,6 C 7,8 C 0,0 km/h (0 Bft)
17.11.2014 00:05 -1,8 C 93 % 1006,9 hPa 0,0 l/m 0,0 km/h (0 Bft) SO 135 -2,8 C 7,8 C 0,0 km/h (0 Bft)
17.11.2014 00:10 -1,6 C 93 % 1006,9 hPa 0,0 l/m 0,0 km/h (0 Bft) SO 135 -2,6 C 7,8 C 0,0 km/h (0 Bft)
17.11.2014 00:15 -1,6 C 93 % 1006,9 hPa 0,0 l/m 0,0 km/h (0 Bft) SO 135 -2,6 C 7,8 C 0,0 km/h (0 Bft)
17.11.2014 00:20 -1,2 C 93 % 1006,9 hPa 0,0 l/m 0,0 km/h (0 Bft) SO 135 -2,2 C 7,8 C 0,0 km/h (0 Bft)
17.11.2014 00:25 -0,6 C 94 % 1006,9 hPa 0,0 l/m 0,0 km/h (0 Bft) SO 135 -1,4 C 7,8 C 0,0 km/h (0 Bft)
17.11.2014 00:30 -0,2 C 94 % 1006,9 hPa 0,0 l/m 0,0 km/h (0 Bft) SO 135 -1,0 C 7,8 C 0,0 km/h (0 Bft)
17.11.2014 00:35 -0,6 C 94 % 1006,7 hPa 0,0 l/m 0,0 km/h (0 Bft) SO 135 -1,4 C 7,8 C 0,0 km/h (0 Bft)
17.11.2014 00:40 -1,1 C 94 % 1006,7 hPa 0,0 l/m 0,0 km/h (0 Bft) SO 135 -1,9 C 7,8 C 0,0 km/h (0 Bft)
17.11.2014 00:45 -1,1 C 94 % 1006,7 hPa 0,0 l/m 0,0 km/h (0 Bft) SO 135 -1,9 C 7,8 C 0,0 km/h (0 Bft)
17.11.2014 00:50 -1,1 C 94 % 1006,7 hPa 0,0 l/m 0,0 km/h (0 Bft) SO 135 -1,9 C 7,8 C 0,0 km/h (0 Bft)
17.11.2014 00:55 -1,4 C 94 % 1006,8 hPa 0,0 l/m 0,0 km/h (0 Bft) SO 135 -2,2 C 7,8 C 0,0 km/h (0 Bft)
17.11.2014 01:00 -1,8 C 94 % 1006,8 hPa 0,0 l/m 0,0 km/h (0 Bft) SO 135 -2,6 C 7,8 C 0,0 km/h (0 Bft)
17.11.2014 01:05 -1,3 C 94 % 1006,8 hPa 0,0 l/m 0,0 km/h (0 Bft) SO 135 -2,1 C 7,8 C 0,0 km/h (0 Bft)
17.11.2014 01:10 -1,3 C 94 % 1006,8 hPa 0,0 l/m 0,0 km/h (0 Bft) SO 135 -2,1 C 7,8 C 0,0 km/h (0 Bft)
17.11.2014 01:15 -1,3 C 94 % 1006,9 hPa 0,0 l/m 0,0 km/h (0 Bft) SO 135 -2,1 C 7,8 C 0,0 km/h (0 Bft)
17.11.2014 01:20 -0,9 C 94 % 1006,9 hPa 0,0 l/m 0,0 km/h (0 Bft) SO 135 -1,7 C 7,8 C 0,0 km/h (0 Bft)
17.11.2014 01:25 -0,8 C 94 % 1006,9 hPa 0,0 l/m 0,0 km/h (0 Bft) SO 135 -1,6 C 7,8 C 0,0 km/h (0 Bft)
17.11.2014 01:30 -0,5 C 94 % 1006,9 hPa 0,0 l/m 0,0 km/h (0 Bft) SO 135 -1,3 C 7,8 C 0,0 km/h (0 Bft)
17.11.2014 01:35 -1,3 C 94 % 1006,9 hPa 0,0 l/m 0,0 km/h (0 Bft) SO 135 -2,1 C 7,8 C 0,0 km/h (0 Bft)
17.11.2014 01:40 -1,7 C 94 % 1006,9 hPa 0,0 l/m 0,0 km/h (0 Bft) SO 135 -2,5 C 7,8 C 0,0 km/h (0 Bft)
17.11.2014 01:45 -1,4 C 94 % 1006,9 hPa 0,0 l/m 0,0 km/h (0 Bft) SO 135 -2,2 C 7,8 C 0,0 km/h (0 Bft)
17.11.2014 01:50 -0,4 C 94 % 1006,9 hPa 0,0 l/m 0,0 km/h (0 Bft) SO 135 -1,2 C 7,8 C 0,0 km/h (0 Bft)
17.11.2014 01:55 -0,2 C 94 % 1007,0 hPa 0,0 l/m 0,0 km/h (0 Bft) SO 135 -1,0 C 7,8 C 0,0 km/h (0 Bft)
17.11.2014 02:00 -0,9 C 94 % 1007,0 hPa 0,0 l/m 0,0 km/h (0 Bft) SO 135 -1,7 C 7,8 C 0,0 km/h (0 Bft)
17.11.2014 02:05 -0,6 C 94 % 1007,0 hPa 0,0 l/m 0,0 km/h (0 Bft) SO 135 -1,4 C 7,8 C 0,0 km/h (0 Bft)
17.11.2014 02:10 -1,1 C 94 % 1007,0 hPa 0,0 l/m 0,0 km/h (0 Bft) SO 135 -1,9 C 7,8 C 0,0 km/h (0 Bft)
17.11.2014 02:15 -1,2 C 94 % 1006,8 hPa 0,0 l/m 0,0 km/h (0 Bft) SO 135 -2,0 C 7,8 C 0,0 km/h (0 Bft)
17.11.2014 02:20 -1,5 C 94 % 1006,8 hPa 0,0 l/m 0,0 km/h (0 Bft) SO 135 -2,3 C 7,8 C 0,0 km/h (0 Bft)
17.11.2014 02:25 -1,6 C 94 % 1006,8 hPa 0,0 l/m 0,0 km/h (0 Bft) SO 135 -2,4 C 7,8 C 0,0 km/h (0 Bft)
17.11.2014 02:28 -1,6 C 94 % 1006,8 hPa 0,0 l/m 0,0 km/h (0 Bft) SO 135 -2,4 C 7,8 C 0,0 km/h (0 Bft)
17.11.2014 02:30 -1,6 C 94 % 1006,8 hPa 0,0 l/m 0,0 km/h (0 Bft) SO 135 -2,4 C 7,8 C 0,0 km/h (0 Bft)
17.11.2014 02:35 -1,0 C 94 % 1006,8 hPa 0,0 l/m 0,0 km/h (0 Bft) SO 135 -1,8 C 7,8 C 0,0 km/h (0 Bft)
17.11.2014 02:40 -0,6 C 94 % 1006,8 hPa 0,0 l/m 0,0 km/h (0 Bft) SO 135 -1,4 C 7,8 C 0,0 km/h (0 Bft)
17.11.2014 02:45 0,3 C 95 % 1006,8 hPa 0,0 l/m 0,0 km/h (0 Bft) SO 135 -0,4 C 7,8 C 0,0 km/h (0 Bft)
17.11.2014 02:50 -0,5 C 95 % 1006,8 hPa 0,0 l/m 0,0 km/h (0 Bft) SO 135 -1,2 C 7,8 C 0,0 km/h (0 Bft)
17.11.2014 02:55 -1,1 C 95 % 1006,7 hPa 0,0 l/m 0,0 km/h (0 Bft) SO 135 -1,8 C 7,8 C 0,0 km/h (0 Bft)
17.11.2014 03:00 -1,2 C 95 % 1006,7 hPa 0,0 l/m 0,0 km/h (0 Bft) SO 135 -1,9 C 7,8 C 0,0 km/h (0 Bft)
17.11.2014 03:05 -1,3 C 95 % 1006,7 hPa 0,0 l/m 0,0 km/h (0 Bft) SO 135 -2,0 C 7,8 C 0,0 km/h (0 Bft)
17.11.2014 03:10 -1,3 C 95 % 1006,7 hPa 0,0 l/m 0,0 km/h (0 Bft) SO 135 -2,0 C 7,8 C 0,0 km/h (0 Bft)
17.11.2014 03:15 -1,3 C 95 % 1006,4 hPa 0,0 l/m 0,0 km/h (0 Bft) SO 135 -2,0 C 7,8 C 0,0 km/h (0 Bft)
17.11.2014 03:20 -1,3 C 95 % 1006,4 hPa 0,0 l/m 0,0 km/h (0 Bft) SO 135 -2,0 C 7,8 C 0,0 km/h (0 Bft)
17.11.2014 03:25 -1,1 C 95 % 1006,4 hPa 0,0 l/m 0,0 km/h (0 Bft) SO 135 -1,8 C 7,8 C 0,0 km/h (0 Bft)
17.11.2014 03:30 -1,0 C 95 % 1006,4 hPa 0,0 l/m 0,0 km/h (0 Bft) SO 135 -1,7 C 7,8 C 0,0 km/h (0 Bft)
17.11.2014 03:35 -1,1 C 95 % 1006,2 hPa 0,0 l/m 0,0 km/h (0 Bft) SO 135 -1,8 C 7,8 C 0,0 km/h (0 Bft)
17.11.2014 03:40 -1,5 C 95 % 1006,2 hPa 0,0 l/m 0,0 km/h (0 Bft) SO 135 -2,2 C 7,8 C 0,0 km/h (0 Bft)
17.11.2014 03:45 -1,6 C 95 % 1006,2 hPa 0,0 l/m 0,0 km/h (0 Bft) SO 135 -2,3 C 7,8 C 0,0 km/h (0 Bft)
17.11.2014 03:50 -1,8 C 94 % 1006,2 hPa 0,0 l/m 0,0 km/h (0 Bft) SO 135 -2,6 C 7,8 C 0,0 km/h (0 Bft)
17.11.2014 03:55 -1,5 C 95 % 1006,4 hPa 0,0 l/m 0,0 km/h (0 Bft) SO 135 -2,2 C 7,8 C 0,0 km/h (0 Bft)
17.11.2014 04:00 -1,5 C 95 % 1006,4 hPa 0,0 l/m 0,0 km/h (0 Bft) SO 135 -2,2 C 7,8 C 0,0 km/h (0 Bft)
17.11.2014 04:05 -1,6 C 95 % 1006,4 hPa 0,0 l/m 0,0 km/h (0 Bft) SO 135 -2,3 C 7,8 C 0,0 km/h (0 Bft)
17.11.2014 04:10 -0,5 C 95 % 1006,4 hPa 0,0 l/m 0,0 km/h (0 Bft) SO 135 -1,2 C 7,8 C 0,0 km/h (0 Bft)
17.11.2014 04:15 -0,7 C 95 % 1006,4 hPa 0,0 l/m 0,0 km/h (0 Bft) SO 135 -1,4 C 7,8 C 0,0 km/h (0 Bft)
17.11.2014 04:20 -0,9 C 95 % 1006,4 hPa 0,0 l/m 0,0 km/h (0 Bft) SO 135 -1,6 C 7,8 C 0,0 km/h (0 Bft)
17.11.2014 04:25 -0,8 C 95 % 1006,4 hPa 0,0 l/m 0,0 km/h (0 Bft) SO 135 -1,5 C 7,8 C 0,0 km/h (0 Bft)
17.11.2014 04:30 -0,7 C 95 % 1006,4 hPa 0,0 l/m 0,0 km/h (0 Bft) SO 135 -1,4 C 7,8 C 0,0 km/h (0 Bft)
17.11.2014 04:35 -1,1 C 95 % 1006,5 hPa 0,0 l/m 0,0 km/h (0 Bft) SO 135 -1,8 C 7,8 C 0,0 km/h (0 Bft)
17.11.2014 04:40 -1,3 C 95 % 1006,5 hPa 0,0 l/m 0,0 km/h (0 Bft) SO 135 -2,0 C 7,8 C 0,0 km/h (0 Bft)
17.11.2014 04:45 -1,3 C 95 % 1006,5 hPa 0,0 l/m 0,0 km/h (0 Bft) SO 135 -2,0 C 7,8 C 0,0 km/h (0 Bft)
17.11.2014 04:52 -1,0 C 95 % 1006,5 hPa 0,0 l/m 0,0 km/h (0 Bft) SO 135 -1,7 C 7,8 C 0,0 km/h (0 Bft)
17.11.2014 04:53 -1,0 C 95 % 1006,5 hPa 0,0 l/m 0,0 km/h (0 Bft) SO 135 -1,7 C 7,8 C 0,0 km/h (0 Bft)
17.11.2014 04:55 -0,9 C 95 % 1006,4 hPa 0,0 l/m 0,0 km/h (0 Bft) SO 135 -1,6 C 7,8 C 0,0 km/h (0 Bft)
17.11.2014 05:00 -1,4 C 95 % 1006,4 hPa 0,0 l/m 0,0 km/h (0 Bft) SO 135 -2,1 C 7,8 C 0,0 km/h (0 Bft)
17.11.2014 05:05 -1,7 C 95 % 1006,4 hPa 0,0 l/m 0,0 km/h (0 Bft) SO 135 -2,4 C 7,8 C 0,0 km/h (0 Bft)
17.11.2014 05:10 -2,0 C 95 % 1006,4 hPa 0,0 l/m 0,0 km/h (0 Bft) SO 135 -2,7 C 7,8 C 0,0 km/h (0 Bft)
17.11.2014 05:15 -2,0 C 95 % 1006,4 hPa 0,0 l/m 0,0 km/h (0 Bft) SO 135 -2,7 C 7,8 C 0,0 km/h (0 Bft)
17.11.2014 05:20 -1,9 C 95 % 1006,4 hPa 0,0 l/m 0,0 km/h (0 Bft) SO 135 -2,6 C 7,8 C 0,0 km/h (0 Bft)
17.11.2014 05:25 -2,0 C 95 % 1006,4 hPa 0,0 l/m 0,0 km/h (0 Bft) SO 135 -2,7 C 7,8 C 0,0 km/h (0 Bft)
17.11.2014 05:28 -1,8 C 95 % 1006,4 hPa 0,0 l/m 0,0 km/h (0 Bft) SO 135 -2,5 C 7,8 C 0,0 km/h (0 Bft)
17.11.2014 05:30 -1,8 C 95 % 1006,4 hPa 0,0 l/m 0,0 km/h (0 Bft) SO 135 -2,5 C 7,8 C 0,0 km/h (0 Bft)
17.11.2014 05:35 -2,0 C 94 % 1006,4 hPa 0,0 l/m 0,0 km/h (0 Bft) SO 135 -2,8 C 7,8 C 0,0 km/h (0 Bft)
17.11.2014 05:40 -2,0 C 95 % 1006,4 hPa 0,0 l/m 0,0 km/h (0 Bft) SO 135 -2,7 C 7,8 C 0,0 km/h (0 Bft)
17.11.2014 05:45 -1,9 C 94 % 1006,4 hPa 0,0 l/m 0,0 km/h (0 Bft) SO 135 -2,7 C 7,8 C 0,0 km/h (0 Bft)
17.11.2014 05:50 -1,7 C 95 % 1006,4 hPa 0,0 l/m 0,0 km/h (0 Bft) SO 135 -2,4 C 7,8 C 0,0 km/h (0 Bft)
17.11.2014 05:55 -1,7 C 95 % 1006,3 hPa 0,0 l/m 0,0 km/h (0 Bft) SO 135 -2,4 C 7,8 C 0,0 km/h (0 Bft)
17.11.2014 06:00 -1,8 C 95 % 1006,3 hPa 0,0 l/m 0,0 km/h (0 Bft) SO 135 -2,5 C 7,8 C 0,0 km/h (0 Bft)
17.11.2014 06:05 -2,2 C 94 % 1006,3 hPa 0,0 l/m 0,0 km/h (0 Bft) SO 135 -3,0 C 7,8 C 0,0 km/h (0 Bft)
17.11.2014 06:10 -2,3 C 94 % 1006,3 hPa 0,0 l/m 0,0 km/h (0 Bft) SO 135 -3,1 C 7,8 C 0,0 km/h (0 Bft)
17.11.2014 06:15 -2,1 C 94 % 1006,4 hPa 0,0 l/m 0,0 km/h (0 Bft) SO 135 -2,9 C 7,8 C 0,0 km/h (0 Bft)
17.11.2014 06:20 -1,6 C 95 % 1006,4 hPa 0,0 l/m 0,0 km/h (0 Bft) SO 135 -2,3 C 7,8 C 0,0 km/h (0 Bft)
17.11.2014 06:25 -1,5 C 95 % 1006,4 hPa 0,0 l/m 0,0 km/h (0 Bft) SO 135 -2,2 C 7,8 C 0,0 km/h (0 Bft)
17.11.2014 06:30 -1,8 C 94 % 1006,4 hPa 0,0 l/m 0,0 km/h (0 Bft) SO 135 -2,6 C 7,8 C 0,0 km/h (0 Bft)
17.11.2014 06:35 -0,9 C 95 % 1006,4 hPa 0,0 l/m 0,0 km/h (0 Bft) SO 135 -1,6 C 7,8 C 0,0 km/h (0 Bft)
17.11.2014 06:40 -1,7 C 95 % 1006,4 hPa 0,0 l/m 0,0 km/h (0 Bft) SO 135 -2,4 C 7,8 C 0,0 km/h (0 Bft)
17.11.2014 06:45 -2,1 C 94 % 1006,4 hPa 0,0 l/m 0,0 km/h (0 Bft) SO 135 -2,9 C 7,8 C 0,0 km/h (0 Bft)
17.11.2014 06:50 -2,2 C 94 % 1006,4 hPa 0,0 l/m 0,0 km/h (0 Bft) SO 135 -3,0 C 7,8 C 0,0 km/h (0 Bft)
17.11.2014 06:55 -2,1 C 94 % 1006,3 hPa 0,0 l/m 0,0 km/h (0 Bft) SO 135 -2,9 C 7,8 C 0,0 km/h (0 Bft)
17.11.2014 07:00 -1,9 C 94 % 1006,3 hPa 0,0 l/m 0,0 km/h (0 Bft) SO 135 -2,7 C 7,8 C 0,0 km/h (0 Bft)
17.11.2014 07:05 -2,0 C 94 % 1006,3 hPa 0,0 l/m 0,0 km/h (0 Bft) SO 135 -2,8 C 7,8 C 0,0 km/h (0 Bft)
17.11.2014 07:10 -2,0 C 94 % 1006,3 hPa 0,0 l/m 0,0 km/h (0 Bft) SO 135 -2,8 C 7,8 C 0,0 km/h (0 Bft)
17.11.2014 07:15 -1,9 C 94 % 1006,2 hPa 0,0 l/m 0,0 km/h (0 Bft) SO 135 -2,7 C 7,8 C 0,0 km/h (0 Bft)
17.11.2014 07:20 -2,0 C 94 % 1006,2 hPa 0,0 l/m 0,0 km/h (0 Bft) SO 135 -2,8 C 7,8 C 0,0 km/h (0 Bft)
17.11.2014 07:25 -1,7 C 94 % 1006,2 hPa 0,0 l/m 0,0 km/h (0 Bft) SO 135 -2,5 C 7,8 C 0,0 km/h (0 Bft)
17.11.2014 07:30 -2,0 C 94 % 1006,2 hPa 0,0 l/m 0,0 km/h (0 Bft) SO 135 -2,8 C 7,8 C 0,0 km/h (0 Bft)
17.11.2014 07:35 -1,8 C 94 % 1006,4 hPa 0,0 l/m 0,0 km/h (0 Bft) SO 135 -2,6 C 7,8 C 0,0 km/h (0 Bft)
17.11.2014 07:40 -1,6 C 94 % 1006,4 hPa 0,0 l/m 0,0 km/h (0 Bft) SO 135 -2,4 C 7,8 C 0,0 km/h (0 Bft)
17.11.2014 07:45 -1,7 C 94 % 1006,4 hPa 0,0 l/m 0,0 km/h (0 Bft) SO 135 -2,5 C 7,8 C 0,0 km/h (0 Bft)
17.11.2014 07:50 -1,6 C 94 % 1006,4 hPa 0,0 l/m 0,0 km/h (0 Bft) SO 135 -2,4 C 7,8 C 0,0 km/h (0 Bft)
17.11.2014 07:55 -1,6 C 94 % 1006,6 hPa 0,0 l/m 0,0 km/h (0 Bft) SO 135 -2,4 C 7,8 C 0,0 km/h (0 Bft)
17.11.2014 08:00 -1,6 C 94 % 1006,6 hPa 0,0 l/m 0,0 km/h (0 Bft) SO 135 -2,4 C 7,8 C 0,0 km/h (0 Bft)
17.11.2014 08:05 -1,4 C 94 % 1006,6 hPa 0,0 l/m 0,0 km/h (0 Bft) SO 135 -2,2 C 7,8 C 0,0 km/h (0 Bft)
17.11.2014 08:10 -1,5 C 94 % 1006,6 hPa 0,0 l/m 0,0 km/h (0 Bft) SO 135 -2,3 C 7,8 C 0,0 km/h (0 Bft)
17.11.2014 08:15 -1,3 C 94 % 1007,0 hPa 0,0 l/m 0,0 km/h (0 Bft) SO 135 -2,1 C 7,8 C 0,0 km/h (0 Bft)
17.11.2014 08:20 -0,9 C 95 % 1007,0 hPa 0,0 l/m 0,0 km/h (0 Bft) SO 135 -1,6 C 7,8 C 0,0 km/h (0 Bft)
17.11.2014 08:25 -1,0 C 95 % 1007,0 hPa 0,0 l/m 0,0 km/h (0 Bft) SO 135 -1,7 C 7,8 C 0,0 km/h (0 Bft)
17.11.2014 08:28 -0,9 C 95 % 1007,0 hPa 0,0 l/m 0,0 km/h (0 Bft) SO 135 -1,6 C 7,8 C 0,0 km/h (0 Bft)
17.11.2014 08:30 -0,9 C 95 % 1007,0 hPa 0,0 l/m 0,0 km/h (0 Bft) SO 135 -1,6 C 7,8 C 0,0 km/h (0 Bft)
17.11.2014 08:35 -0,7 C 95 % 1007,0 hPa 0,0 l/m 0,0 km/h (0 Bft) SO 135 -1,4 C 7,8 C 0,0 km/h (0 Bft)
17.11.2014 08:40 -0,4 C 95 % 1007,0 hPa 0,0 l/m 0,0 km/h (0 Bft) SO 135 -1,1 C 7,8 C 0,0 km/h (0 Bft)
17.11.2014 08:45 -0,2 C 95 % 1007,0 hPa 0,0 l/m 0,0 km/h (0 Bft) SO 135 -0,9 C 7,8 C 0,0 km/h (0 Bft)
17.11.2014 08:50 0,0 C 95 % 1007,0 hPa 0,0 l/m 0,0 km/h (0 Bft) SO 135 -0,7 C 7,8 C 0,0 km/h (0 Bft)
17.11.2014 08:55 0,1 C 95 % 1007,1 hPa 0,0 l/m 0,0 km/h (0 Bft) SO 135 -0,6 C 7,8 C 0,0 km/h (0 Bft)
17.11.2014 09:00 0,1 C 95 % 1007,1 hPa 0,0 l/m 0,0 km/h (0 Bft) SO 135 -0,6 C 7,8 C 0,0 km/h (0 Bft)
17.11.2014 09:05 0,2 C 95 % 1007,1 hPa 0,0 l/m 0,0 km/h (0 Bft) SO 135 -0,5 C 7,8 C 0,0 km/h (0 Bft)
17.11.2014 09:10 0,3 C 95 % 1007,1 hPa 0,0 l/m 0,0 km/h (0 Bft) SO 135 -0,4 C 7,8 C 0,0 km/h (0 Bft)
17.11.2014 09:15 0,4 C 95 % 1007,3 hPa 0,0 l/m 0,0 km/h (0 Bft) SO 135 -0,3 C 7,8 C 0,0 km/h (0 Bft)
17.11.2014 09:20 0,5 C 95 % 1007,3 hPa 0,0 l/m 0,0 km/h (0 Bft) SO 135 -0,2 C 7,8 C 0,0 km/h (0 Bft)
17.11.2014 09:25 0,7 C 95 % 1007,3 hPa 0,0 l/m 0,0 km/h (0 Bft) SO 135 -0,0 C 7,8 C 0,0 km/h (0 Bft)
17.11.2014 09:30 1,0 C 95 % 1007,3 hPa 0,0 l/m 0,0 km/h (0 Bft) SO 135 0,3 C 7,8 C 0,0 km/h (0 Bft)
17.11.2014 09:35 1,1 C 95 % 1007,2 hPa 0,0 l/m 0,0 km/h (0 Bft) SO 135 0,4 C 7,8 C 0,0 km/h (0 Bft)
17.11.2014 09:40 1,4 C 95 % 1007,2 hPa 0,0 l/m 0,0 km/h (0 Bft) SO 135 0,7 C 7,8 C 0,0 km/h (0 Bft)
17.11.2014 09:45 1,5 C 95 % 1007,2 hPa 0,0 l/m 0,0 km/h (0 Bft) SO 135 0,8 C 7,8 C 0,0 km/h (0 Bft)
17.11.2014 09:50 1,3 C 95 % 1007,2 hPa 0,0 l/m 0,0 km/h (0 Bft) SO 135 0,6 C 7,8 C 0,0 km/h (0 Bft)
17.11.2014 09:55 1,5 C 95 % 1007,2 hPa 0,0 l/m 0,0 km/h (0 Bft) SO 135 0,8 C 7,8 C 0,0 km/h (0 Bft)
17.11.2014 10:00 1,7 C 95 % 1007,2 hPa 0,0 l/m 0,0 km/h (0 Bft) SO 135 1,0 C 7,8 C 0,0 km/h (0 Bft)
17.11.2014 10:05 1,8 C 95 % 1007,2 hPa 0,0 l/m 0,0 km/h (0 Bft) SO 135 1,1 C 7,8 C 0,0 km/h (0 Bft)
17.11.2014 10:10 2,2 C 95 % 1007,2 hPa 0,0 l/m 0,0 km/h (0 Bft) SO 135 1,5 C 7,8 C 0,0 km/h (0 Bft)
17.11.2014 10:15 2,4 C 95 % 1007,5 hPa 0,0 l/m 0,0 km/h (0 Bft) SO 135 1,7 C 7,8 C 0,0 km/h (0 Bft)
17.11.2014 10:20 2,9 C 95 % 1007,5 hPa 0,0 l/m 0,0 km/h (0 Bft) SO 135 2,2 C 7,8 C 0,0 km/h (0 Bft)
17.11.2014 10:25 3,1 C 95 % 1007,5 hPa 0,0 l/m 0,0 km/h (0 Bft) SO 135 2,4 C 7,8 C 0,0 km/h (0 Bft)
17.11.2014 10:30 3,3 C 95 % 1007,5 hPa 0,0 l/m 0,0 km/h (0 Bft) SO 135 2,6 C 7,8 C 0,0 km/h (0 Bft)
17.11.2014 10:35 3,5 C 95 % 1007,2 hPa 0,0 l/m 0,0 km/h (0 Bft) SO 135 2,8 C 7,8 C 0,0 km/h (0 Bft)
17.11.2014 10:40 3,8 C 95 % 1007,2 hPa 0,0 l/m 0,0 km/h (0 Bft) SO 135 3,1 C 7,8 C 0,0 km/h (0 Bft)
17.11.2014 10:45 3,8 C 95 % 1007,2 hPa 0,0 l/m 0,0 km/h (0 Bft) SO 135 3,1 C 7,8 C 0,0 km/h (0 Bft)
17.11.2014 10:50 3,9 C 95 % 1007,2 hPa 0,0 l/m 0,0 km/h (0 Bft) SO 135 3,2 C 7,8 C 0,0 km/h (0 Bft)
17.11.2014 10:55 4,0 C 95 % 1007,1 hPa 0,0 l/m 0,0 km/h (0 Bft) SO 135 3,3 C 7,8 C 0,0 km/h (0 Bft)
17.11.2014 11:00 4,2 C 95 % 1007,1 hPa 0,0 l/m 0,0 km/h (0 Bft) SO 135 3,5 C 7,8 C 0,0 km/h (0 Bft)
17.11.2014 11:05 4,3 C 95 % 1007,1 hPa 0,0 l/m 0,0 km/h (0 Bft) SO 135 3,6 C 7,8 C 0,0 km/h (0 Bft)
17.11.2014 11:10 4,9 C 95 % 1007,1 hPa 0,0 l/m 0,0 km/h (0 Bft) SO 135 4,2 C 7,8 C 0,0 km/h (0 Bft)
17.11.2014 11:15 5,1 C 94 % 1007,3 hPa 0,0 l/m 0,0 km/h (0 Bft) SO 135 4,2 C 7,8 C 0,0 km/h (0 Bft)
17.11.2014 11:20 5,5 C 94 % 1007,3 hPa 0,0 l/m 0,0 km/h (0 Bft) SO 135 4,6 C 7,8 C 0,0 km/h (0 Bft)
17.11.2014 11:23 5,5 C 94 % 1007,3 hPa 0,0 l/m 0,0 km/h (0 Bft) SO 135 4,6 C 7,8 C 0,0 km/h (0 Bft)
17.11.2014 11:25 5,5 C 94 % 1007,3 hPa 0,0 l/m 0,0 km/h (0 Bft) SO 135 4,6 C 7,8 C 0,0 km/h (0 Bft)
17.11.2014 11:30 5,5 C 94 % 1007,3 hPa 0,0 l/m 0,0 km/h (0 Bft) SO 135 4,6 C 7,8 C 0,0 km/h (0 Bft)
17.11.2014 11:35 5,8 C 94 % 1007,3 hPa 0,0 l/m 0,0 km/h (0 Bft) SO 135 4,9 C 7,8 C 0,0 km/h (0 Bft)
17.11.2014 11:40 6,2 C 93 % 1007,3 hPa 0,0 l/m 0,0 km/h (0 Bft) SO 135 5,2 C 7,8 C 0,0 km/h (0 Bft)
17.11.2014 11:45 6,0 C 93 % 1007,3 hPa 0,0 l/m 0,0 km/h (0 Bft) SO 135 5,0 C 7,8 C 0,0 km/h (0 Bft)
17.11.2014 11:50 6,2 C 93 % 1007,3 hPa 0,0 l/m 0,0 km/h (0 Bft) SO 135 5,2 C 7,8 C 0,0 km/h (0 Bft)
17.11.2014 11:55 6,0 C 92 % 1007,1 hPa 0,0 l/m 0,0 km/h (0 Bft) SO 135 4,8 C 7,8 C 0,0 km/h (0 Bft)
17.11.2014 12:00 6,1 C 92 % 1007,1 hPa 0,0 l/m 0,0 km/h (0 Bft) SO 135 4,9 C 7,8 C 0,0 km/h (0 Bft)
17.11.2014 12:05 6,0 C 90 % 1007,1 hPa 0,0 l/m 0,0 km/h (0 Bft) SO 135 4,5 C 7,8 C 0,0 km/h (0 Bft)
17.11.2014 12:10 6,2 C 90 % 1007,1 hPa 0,0 l/m 0,0 km/h (0 Bft) SO 135 4,7 C 7,8 C 0,0 km/h (0 Bft)
17.11.2014 12:15 6,2 C 90 % 1007,2 hPa 0,0 l/m 0,0 km/h (0 Bft) SO 135 4,7 C 7,8 C 0,0 km/h (0 Bft)
17.11.2014 12:20 6,3 C 89 % 1007,2 hPa 0,0 l/m 0,0 km/h (0 Bft) SO 135 4,6 C 7,8 C 0,0 km/h (0 Bft)
17.11.2014 12:25 6,3 C 89 % 1007,2 hPa 0,0 l/m 0,0 km/h (0 Bft) SO 135 4,6 C 7,8 C 0,0 km/h (0 Bft)
17.11.2014 12:30 6,2 C 89 % 1007,2 hPa 0,0 l/m 0,0 km/h (0 Bft) SO 135 4,5 C 7,8 C 0,0 km/h (0 Bft)
17.11.2014 12:35 6,4 C 89 % 1007,2 hPa 0,0 l/m 0,0 km/h (0 Bft) SO 135 4,7 C 7,8 C 0,0 km/h (0 Bft)
17.11.2014 12:40 6,3 C 88 % 1007,2 hPa 0,0 l/m 0,0 km/h (0 Bft) SO 135 4,5 C 7,8 C 0,0 km/h (0 Bft)
17.11.2014 12:45 6,2 C 87 % 1007,2 hPa 0,0 l/m 0,0 km/h (0 Bft) SO 135 4,2 C 7,8 C 0,0 km/h (0 Bft)
17.11.2014 12:50 6,3 C 87 % 1007,2 hPa 0,0 l/m 0,0 km/h (0 Bft) SO 135 4,3 C 7,8 C 0,0 km/h (0 Bft)
17.11.2014 12:55 6,1 C 86 % 1007,2 hPa 0,0 l/m 0,0 km/h (0 Bft) SO 135 3,9 C 7,8 C 0,0 km/h (0 Bft)
17.11.2014 13:00 6,0 C 84 % 1007,2 hPa 0,0 l/m 0,0 km/h (0 Bft) SO 135 3,5 C 7,8 C 0,0 km/h (0 Bft)
17.11.2014 13:05 6,0 C 82 % 1007,2 hPa 0,0 l/m 0,0 km/h (0 Bft) SO 135 3,2 C 7,8 C 0,0 km/h (0 Bft)
17.11.2014 13:10 6,2 C 82 % 1007,2 hPa 0,0 l/m 0,0 km/h (0 Bft) SO 135 3,4 C 7,8 C 0,0 km/h (0 Bft)
17.11.2014 13:15 6,5 C 84 % 1007,1 hPa 0,0 l/m 0,0 km/h (0 Bft) SO 135 4,0 C 7,8 C 0,0 km/h (0 Bft)
17.11.2014 13:20 7,1 C 84 % 1007,1 hPa 0,0 l/m 0,0 km/h (0 Bft) SO 135 4,6 C 7,8 C 0,0 km/h (0 Bft)
17.11.2014 13:25 7,3 C 85 % 1007,1 hPa 0,0 l/m 0,0 km/h (0 Bft) SO 135 4,9 C 7,8 C 0,0 km/h (0 Bft)
17.11.2014 13:30 7,5 C 85 % 1007,1 hPa 0,0 l/m 0,0 km/h (0 Bft) SO 135 5,1 C 7,8 C 0,0 km/h (0 Bft)
17.11.2014 13:35 7,6 C 84 % 1006,9 hPa 0,0 l/m 0,0 km/h (0 Bft) SO 135 5,1 C 7,8 C 0,0 km/h (0 Bft)
17.11.2014 13:40 7,8 C 85 % 1006,9 hPa 0,0 l/m 0,0 km/h (0 Bft) SO 135 5,4 C 7,8 C 0,0 km/h (0 Bft)
17.11.2014 13:45 7,8 C 84 % 1006,9 hPa 0,0 l/m 0,0 km/h (0 Bft) SO 135 5,3 C 7,8 C 0,0 km/h (0 Bft)
17.11.2014 13:50 7,9 C 84 % 1006,9 hPa 0,0 l/m 0,0 km/h (0 Bft) SO 135 5,4 C 7,8 C 0,0 km/h (0 Bft)
17.11.2014 13:55 8,0 C 84 % 1007,1 hPa 0,0 l/m 0,0 km/h (0 Bft) SO 135 5,5 C 7,8 C 0,0 km/h (0 Bft)
17.11.2014 14:00 7,9 C 79 % 1007,1 hPa 0,0 l/m 0,0 km/h (0 Bft) SO 135 4,5 C 7,8 C 0,0 km/h (0 Bft)
17.11.2014 14:05 7,9 C 80 % 1007,1 hPa 0,0 l/m 0,0 km/h (0 Bft) SO 135 4,7 C 7,8 C 0,0 km/h (0 Bft)
17.11.2014 14:10 7,9 C 80 % 1007,1 hPa 0,0 l/m 0,0 km/h (0 Bft) SO 135 4,7 C 7,8 C 0,0 km/h (0 Bft)
17.11.2014 14:15 7,9 C 81 % 1006,9 hPa 0,0 l/m 0,0 km/h (0 Bft) SO 135 4,8 C 7,8 C 0,0 km/h (0 Bft)
17.11.2014 14:20 7,8 C 80 % 1006,9 hPa 0,0 l/m 0,0 km/h (0 Bft) SO 135 4,6 C 7,8 C 0,0 km/h (0 Bft)
17.11.2014 14:23 7,5 C 78 % 1006,9 hPa 0,0 l/m 0,0 km/h (0 Bft) SO 135 3,9 C 7,8 C 0,0 km/h (0 Bft)
17.11.2014 14:25 7,5 C 78 % 1006,9 hPa 0,0 l/m 0,0 km/h (0 Bft) SO 135 3,9 C 7,8 C 0,0 km/h (0 Bft)
17.11.2014 14:30 7,1 C 79 % 1006,9 hPa 0,0 l/m 0,0 km/h (0 Bft) SO 135 3,7 C 7,8 C 0,0 km/h (0 Bft)
17.11.2014 14:35 7,0 C 79 % 1006,8 hPa 0,0 l/m 0,0 km/h (0 Bft) SO 135 3,6 C 7,8 C 0,0 km/h (0 Bft)
17.11.2014 14:40 6,6 C 80 % 1006,8 hPa 0,0 l/m 0,0 km/h (0 Bft) SO 135 3,4 C 7,8 C 0,0 km/h (0 Bft)
17.11.2014 14:45 6,4 C 80 % 1006,8 hPa 0,0 l/m 0,0 km/h (0 Bft) SO 135 3,2 C 7,8 C 0,0 km/h (0 Bft)
17.11.2014 14:50 6,1 C 82 % 1006,8 hPa 0,0 l/m 0,0 km/h (0 Bft) SO 135 3,3 C 7,8 C 0,0 km/h (0 Bft)
17.11.2014 14:55 6,1 C 82 % 1006,9 hPa 0,0 l/m 0,0 km/h (0 Bft) SO 135 3,3 C 7,8 C 0,0 km/h (0 Bft)
17.11.2014 15:00 5,9 C 83 % 1006,9 hPa 0,0 l/m 0,0 km/h (0 Bft) SO 135 3,2 C 7,8 C 0,0 km/h (0 Bft)
17.11.2014 15:05 5,8 C 84 % 1006,9 hPa 0,0 l/m 0,0 km/h (0 Bft) SO 135 3,3 C 7,8 C 0,0 km/h (0 Bft)
17.11.2014 15:10 5,7 C 85 % 1006,9 hPa 0,0 l/m 0,0 km/h (0 Bft) SO 135 3,4 C 7,8 C 0,0 km/h (0 Bft)
17.11.2014 15:15 5,5 C 85 % 1006,9 hPa 0,0 l/m 0,0 km/h (0 Bft) SO 135 3,2 C 7,8 C 0,0 km/h (0 Bft)
17.11.2014 15:20 5,1 C 85 % 1006,9 hPa 0,0 l/m 0,0 km/h (0 Bft) SO 135 2,8 C 7,8 C 0,0 km/h (0 Bft)
17.11.2014 15:25 4,8 C 85 % 1006,9 hPa 0,0 l/m 0,0 km/h (0 Bft) SO 135 2,5 C 7,8 C 0,0 km/h (0 Bft)
17.11.2014 15:30 4,6 C 86 % 1006,9 hPa 0,0 l/m 0,0 km/h (0 Bft) SO 135 2,5 C 7,8 C 0,0 km/h (0 Bft)
17.11.2014 15:35 4,3 C 86 % 1006,8 hPa 0,0 l/m 0,0 km/h (0 Bft) SO 135 2,2 C 7,8 C 0,0 km/h (0 Bft)
17.11.2014 15:40 4,0 C 86 % 1006,8 hPa 0,0 l/m 0,0 km/h (0 Bft) SO 135 1,9 C 7,8 C 0,0 km/h (0 Bft)
17.11.2014 15:45 3,8 C 87 % 1006,8 hPa 0,0 l/m 0,0 km/h (0 Bft) SO 135 1,8 C 7,8 C 0,0 km/h (0 Bft)
17.11.2014 15:50 3,7 C 88 % 1006,8 hPa 0,0 l/m 0,0 km/h (0 Bft) SO 135 1,9 C 7,8 C 0,0 km/h (0 Bft)
17.11.2014 15:55 3,5 C 88 % 1006,9 hPa 0,0 l/m 0,0 km/h (0 Bft) SO 135 1,7 C 7,8 C 0,0 km/h (0 Bft)
17.11.2014 16:00 3,3 C 88 % 1006,9 hPa 0,0 l/m 0,0 km/h (0 Bft) SO 135 1,5 C 7,8 C 0,0 km/h (0 Bft)
17.11.2014 16:05 3,3 C 89 % 1006,9 hPa 0,0 l/m 0,0 km/h (0 Bft) SO 135 1,7 C 7,8 C 0,0 km/h (0 Bft)
17.11.2014 16:10 3,1 C 89 % 1006,9 hPa 0,0 l/m 0,0 km/h (0 Bft) SO 135 1,5 C 7,8 C 0,0 km/h (0 Bft)
17.11.2014 16:15 3,1 C 89 % 1006,8 hPa 0,0 l/m 0,0 km/h (0 Bft) SO 135 1,5 C 7,8 C 0,0 km/h (0 Bft)
17.11.2014 16:20 3,0 C 90 % 1006,8 hPa 0,0 l/m 0,0 km/h (0 Bft) SO 135 1,5 C 7,8 C 0,0 km/h (0 Bft)
17.11.2014 16:25 2,9 C 91 % 1006,8 hPa 0,0 l/m 0,0 km/h (0 Bft) SO 135 1,6 C 7,8 C 0,0 km/h (0 Bft)
17.11.2014 16:30 2,9 C 92 % 1006,8 hPa 0,0 l/m 0,0 km/h (0 Bft) SO 135 1,7 C 7,8 C 0,0 km/h (0 Bft)
17.11.2014 16:35 2,8 C 92 % 1006,8 hPa 0,0 l/m 0,0 km/h (0 Bft) SO 135 1,6 C 7,8 C 0,0 km/h (0 Bft)
17.11.2014 16:40 2,7 C 92 % 1006,8 hPa 0,0 l/m 0,0 km/h (0 Bft) SO 135 1,5 C 7,8 C 0,0 km/h (0 Bft)
17.11.2014 16:45 2,7 C 92 % 1006,8 hPa 0,0 l/m 0,0 km/h (0 Bft) SO 135 1,5 C 7,8 C 0,0 km/h (0 Bft)
17.11.2014 16:50 2,7 C 93 % 1006,8 hPa 0,0 l/m 0,0 km/h (0 Bft) SO 135 1,7 C 7,8 C 0,0 km/h (0 Bft)
17.11.2014 16:55 2,7 C 93 % 1006,5 hPa 0,0 l/m 0,0 km/h (0 Bft) SO 135 1,7 C 7,8 C 0,0 km/h (0 Bft)
17.11.2014 17:00 2,7 C 93 % 1006,5 hPa 0,0 l/m 0,0 km/h (0 Bft) SO 135 1,7 C 7,8 C 0,0 km/h (0 Bft)
17.11.2014 17:05 2,7 C 93 % 1006,5 hPa 0,0 l/m 0,0 km/h (0 Bft) SO 135 1,7 C 7,8 C 0,0 km/h (0 Bft)
17.11.2014 17:10 2,6 C 93 % 1006,5 hPa 0,0 l/m 0,0 km/h (0 Bft) SO 135 1,6 C 7,8 C 0,0 km/h (0 Bft)
17.11.2014 17:15 2,6 C 94 % 1006,4 hPa 0,0 l/m 0,0 km/h (0 Bft) SO 135 1,7 C 7,8 C 0,0 km/h (0 Bft)
17.11.2014 17:20 2,6 C 94 % 1006,4 hPa 0,0 l/m 0,0 km/h (0 Bft) SO 135 1,7 C 7,8 C 0,0 km/h (0 Bft)
17.11.2014 17:23 2,6 C 94 % 1006,4 hPa 0,0 l/m 0,0 km/h (0 Bft) SO 135 1,7 C 7,8 C 0,0 km/h (0 Bft)
17.11.2014 17:25 2,6 C 94 % 1006,4 hPa 0,0 l/m 0,0 km/h (0 Bft) SO 135 1,7 C 7,8 C 0,0 km/h (0 Bft)
17.11.2014 17:30 2,7 C 94 % 1006,4 hPa 0,0 l/m 0,0 km/h (0 Bft) SO 135 1,8 C 7,8 C 0,0 km/h (0 Bft)
17.11.2014 17:35 2,7 C 94 % 1006,2 hPa 0,0 l/m 0,0 km/h (0 Bft) SO 135 1,8 C 7,8 C 0,0 km/h (0 Bft)
17.11.2014 17:40 2,7 C 94 % 1006,2 hPa 0,0 l/m 0,0 km/h (0 Bft) SO 135 1,8 C 7,8 C 0,0 km/h (0 Bft)
17.11.2014 17:45 2,7 C 94 % 1006,2 hPa 0,0 l/m 0,0 km/h (0 Bft) SO 135 1,8 C 7,8 C 0,0 km/h (0 Bft)
17.11.2014 17:50 2,7 C 94 % 1006,2 hPa 0,0 l/m 0,0 km/h (0 Bft) SO 135 1,8 C 7,8 C 0,0 km/h (0 Bft)
17.11.2014 17:55 2,7 C 94 % 1006,5 hPa 0,0 l/m 0,0 km/h (0 Bft) SO 135 1,8 C 7,8 C 0,0 km/h (0 Bft)
17.11.2014 18:00 2,6 C 94 % 1006,5 hPa 0,0 l/m 0,0 km/h (0 Bft) SO 135 1,7 C 7,8 C 0,0 km/h (0 Bft)
17.11.2014 18:05 2,6 C 94 % 1006,5 hPa 0,0 l/m 0,0 km/h (0 Bft) SO 135 1,7 C 7,8 C 0,0 km/h (0 Bft)
17.11.2014 18:10 2,6 C 94 % 1006,5 hPa 0,0 l/m 0,0 km/h (0 Bft) SO 135 1,7 C 7,8 C 0,0 km/h (0 Bft)
17.11.2014 18:15 2,6 C 94 % 1006,3 hPa 0,0 l/m 0,0 km/h (0 Bft) SO 135 1,7 C 7,8 C 0,0 km/h (0 Bft)
17.11.2014 18:21 2,7 C 95 % 1006,3 hPa 0,0 l/m 0,0 km/h (0 Bft) SO 135 2,0 C 7,8 C 0,0 km/h (0 Bft)
17.11.2014 18:22 2,7 C 95 % 1006,3 hPa 0,0 l/m 0,0 km/h (0 Bft) SO 135 2,0 C 7,8 C 0,0 km/h (0 Bft)
17.11.2014 18:25 2,7 C 95 % 1006,3 hPa 0,0 l/m 0,0 km/h (0 Bft) SO 135 2,0 C 7,8 C 0,0 km/h (0 Bft)
17.11.2014 18:30 2,7 C 95 % 1006,3 hPa 0,0 l/m 0,0 km/h (0 Bft) SO 135 2,0 C 7,8 C 0,0 km/h (0 Bft)
17.11.2014 18:35 2,8 C 95 % 1006,4 hPa 0,0 l/m 0,0 km/h (0 Bft) SO 135 2,1 C 7,8 C 0,0 km/h (0 Bft)
17.11.2014 18:40 2,8 C 95 % 1006,4 hPa 0,0 l/m 0,0 km/h (0 Bft) SO 135 2,1 C 7,8 C 0,0 km/h (0 Bft)
17.11.2014 18:45 2,8 C 95 % 1006,4 hPa 0,0 l/m 0,0 km/h (0 Bft) SO 135 2,1 C 7,8 C 0,0 km/h (0 Bft)
17.11.2014 18:50 2,9 C 95 % 1006,4 hPa 0,0 l/m 0,0 km/h (0 Bft) SO 135 2,2 C 7,8 C 0,0 km/h (0 Bft)
17.11.2014 18:55 2,9 C 95 % 1006,4 hPa 0,0 l/m 0,0 km/h (0 Bft) SO 135 2,2 C 7,8 C 0,0 km/h (0 Bft)
17.11.2014 19:00 2,9 C 95 % 1006,4 hPa 0,0 l/m 0,0 km/h (0 Bft) SO 135 2,2 C 7,8 C 0,0 km/h (0 Bft)
17.11.2014 19:05 3,0 C 94 % 1006,4 hPa 0,0 l/m 0,0 km/h (0 Bft) SO 135 2,1 C 7,8 C 0,0 km/h (0 Bft)
17.11.2014 19:10 3,0 C 94 % 1006,4 hPa 0,0 l/m 0,0 km/h (0 Bft) SO 135 2,1 C 7,8 C 0,0 km/h (0 Bft)
17.11.2014 19:15 3,0 C 94 % 1006,4 hPa 0,0 l/m 0,0 km/h (0 Bft) SO 135 2,1 C 7,8 C 0,0 km/h (0 Bft)
17.11.2014 19:20 3,0 C 94 % 1006,4 hPa 0,0 l/m 0,0 km/h (0 Bft) SO 135 2,1 C 7,8 C 0,0 km/h (0 Bft)
17.11.2014 19:21 3,0 C 94 % 1006,4 hPa 0,0 l/m 0,0 km/h (0 Bft) SO 135 2,1 C 7,8 C 0,0 km/h (0 Bft)
17.11.2014 19:25 3,0 C 94 % 1006,4 hPa 0,0 l/m 0,0 km/h (0 Bft) SO 135 2,1 C 7,8 C 0,0 km/h (0 Bft)
17.11.2014 19:30 3,0 C 94 % 1006,7 hPa 0,0 l/m 0,0 km/h (0 Bft) SO 135 2,1 C 7,8 C 0,0 km/h (0 Bft)
17.11.2014 19:35 3,0 C 94 % 1006,7 hPa 0,0 l/m 0,0 km/h (0 Bft) SO 135 2,1 C 7,8 C 0,0 km/h (0 Bft)
17.11.2014 19:40 3,0 C 94 % 1006,7 hPa 0,0 l/m 0,0 km/h (0 Bft) SO 135 2,1 C 7,8 C 0,0 km/h (0 Bft)
17.11.2014 19:45 3,0 C 94 % 1006,7 hPa 0,0 l/m 0,0 km/h (0 Bft) SO 135 2,1 C 7,8 C 0,0 km/h (0 Bft)
17.11.2014 19:50 3,0 C 94 % 1006,6 hPa 0,0 l/m 0,0 km/h (0 Bft) SO 135 2,1 C 7,8 C 0,0 km/h (0 Bft)
17.11.2014 19:55 3,0 C 94 % 1006,6 hPa 0,0 l/m 0,0 km/h (0 Bft) SO 135 2,1 C 7,8 C 0,0 km/h (0 Bft)
17.11.2014 20:00 3,0 C 94 % 1006,6 hPa 0,0 l/m 0,0 km/h (0 Bft) SO 135 2,1 C 7,8 C 0,0 km/h (0 Bft)
17.11.2014 20:05 3,1 C 94 % 1006,6 hPa 0,0 l/m 0,0 km/h (0 Bft) SO 135 2,2 C 7,8 C 0,0 km/h (0 Bft)
17.11.2014 20:10 3,0 C 94 % 1006,6 hPa 0,0 l/m 0,0 km/h (0 Bft) SO 135 2,1 C 7,8 C 0,0 km/h (0 Bft)
17.11.2014 20:15 3,0 C 94 % 1006,6 hPa 0,0 l/m 0,0 km/h (0 Bft) SO 135 2,1 C 7,8 C 0,0 km/h (0 Bft)
17.11.2014 20:20 3,0 C 94 % 1006,6 hPa 0,0 l/m 0,0 km/h (0 Bft) SO 135 2,1 C 7,8 C 0,0 km/h (0 Bft)
17.11.2014 20:25 3,0 C 94 % 1006,6 hPa 0,0 l/m 0,0 km/h (0 Bft) SO 135 2,1 C 7,8 C 0,0 km/h (0 Bft)
17.11.2014 20:30 3,0 C 94 % 1006,5 hPa 0,0 l/m 0,0 km/h (0 Bft) SO 135 2,1 C 7,8 C 0,0 km/h (0 Bft)
17.11.2014 20:35 3,1 C 94 % 1006,5 hPa 0,0 l/m 0,0 km/h (0 Bft) SO 135 2,2 C 7,8 C 0,0 km/h (0 Bft)
17.11.2014 20:40 3,1 C 94 % 1006,5 hPa 0,0 l/m 0,0 km/h (0 Bft) SO 135 2,2 C 7,8 C 0,0 km/h (0 Bft)
17.11.2014 20:45 3,1 C 94 % 1006,5 hPa 0,0 l/m 0,0 km/h (0 Bft) SO 135 2,2 C 7,8 C 0,0 km/h (0 Bft)
17.11.2014 20:50 3,1 C 94 % 1006,8 hPa 0,0 l/m 0,0 km/h (0 Bft) SO 135 2,2 C 7,8 C 0,0 km/h (0 Bft)
17.11.2014 20:55 3,0 C 94 % 1006,8 hPa 0,0 l/m 0,0 km/h (0 Bft) SO 135 2,1 C 7,8 C 0,0 km/h (0 Bft)
17.11.2014 21:00 3,0 C 94 % 1006,8 hPa 0,0 l/m 0,0 km/h (0 Bft) SO 135 2,1 C 7,8 C 0,0 km/h (0 Bft)
17.11.2014 21:05 3,0 C 94 % 1006,8 hPa 0,0 l/m 0,0 km/h (0 Bft) SO 135 2,1 C 7,8 C 0,0 km/h (0 Bft)
17.11.2014 21:10 3,1 C 94 % 1007,0 hPa 0,0 l/m 0,0 km/h (0 Bft) SO 135 2,2 C 7,8 C 0,0 km/h (0 Bft)
17.11.2014 21:15 3,0 C 94 % 1007,0 hPa 0,0 l/m 0,0 km/h (0 Bft) SO 135 2,1 C 7,8 C 0,0 km/h (0 Bft)
17.11.2014 21:20 3,0 C 94 % 1007,0 hPa 0,0 l/m 0,0 km/h (0 Bft) SO 135 2,1 C 7,8 C 0,0 km/h (0 Bft)
17.11.2014 21:25 3,0 C 94 % 1007,0 hPa 0,0 l/m 0,0 km/h (0 Bft) SO 135 2,1 C 7,8 C 0,0 km/h (0 Bft)
17.11.2014 21:30 3,0 C 94 % 1006,9 hPa 0,0 l/m 0,0 km/h (0 Bft) SO 135 2,1 C 7,8 C 0,0 km/h (0 Bft)
17.11.2014 21:35 3,0 C 94 % 1006,9 hPa 0,0 l/m 0,0 km/h (0 Bft) SO 135 2,1 C 7,8 C 0,0 km/h (0 Bft)
17.11.2014 21:40 3,0 C 94 % 1006,9 hPa 0,0 l/m 0,0 km/h (0 Bft) SO 135 2,1 C 7,8 C 0,0 km/h (0 Bft)
17.11.2014 21:45 3,0 C 94 % 1006,9 hPa 0,0 l/m 0,0 km/h (0 Bft) SO 135 2,1 C 7,8 C 0,0 km/h (0 Bft)
17.11.2014 21:50 3,0 C 94 % 1006,9 hPa 0,0 l/m 0,0 km/h (0 Bft) SO 135 2,1 C 7,8 C 0,0 km/h (0 Bft)
17.11.2014 21:55 3,0 C 94 % 1006,9 hPa 0,0 l/m 0,0 km/h (0 Bft) SO 135 2,1 C 7,8 C 0,0 km/h (0 Bft)
17.11.2014 22:00 3,0 C 94 % 1006,9 hPa 0,0 l/m 0,0 km/h (0 Bft) SO 135 2,1 C 7,8 C 0,0 km/h (0 Bft)
17.11.2014 22:05 2,9 C 95 % 1006,9 hPa 0,0 l/m 0,0 km/h (0 Bft) SO 135 2,2 C 7,8 C 0,0 km/h (0 Bft)
17.11.2014 22:10 2,9 C 95 % 1006,8 hPa 0,0 l/m 0,0 km/h (0 Bft) SO 135 2,2 C 7,8 C 0,0 km/h (0 Bft)
17.11.2014 22:15 2,9 C 95 % 1006,8 hPa 0,0 l/m 0,0 km/h (0 Bft) SO 135 2,2 C 7,8 C 0,0 km/h (0 Bft)
17.11.2014 22:20 2,9 C 95 % 1006,8 hPa 0,0 l/m 0,0 km/h (0 Bft) SO 135 2,2 C 7,8 C 0,0 km/h (0 Bft)
17.11.2014 22:25 2,8 C 95 % 1006,8 hPa 0,0 l/m 0,0 km/h (0 Bft) SO 135 2,1 C 7,8 C 0,0 km/h (0 Bft)
17.11.2014 22:30 2,8 C 95 % 1006,8 hPa 0,0 l/m 0,0 km/h (0 Bft) SO 135 2,1 C 7,8 C 0,0 km/h (0 Bft)
17.11.2014 22:35 2,8 C 95 % 1006,7 hPa 0,0 l/m 0,0 km/h (0 Bft) SO 135 2,1 C 7,8 C 0,0 km/h (0 Bft)
17.11.2014 22:40 2,9 C 95 % 1006,7 hPa 0,0 l/m 0,0 km/h (0 Bft) SO 135 2,2 C 7,8 C 0,0 km/h (0 Bft)
17.11.2014 22:45 2,9 C 95 % 1006,7 hPa 0,0 l/m 0,0 km/h (0 Bft) SO 135 2,2 C 7,8 C 0,0 km/h (0 Bft)
17.11.2014 22:50 2,9 C 95 % 1006,7 hPa 0,0 l/m 0,0 km/h (0 Bft) SO 135 2,2 C 7,8 C 0,0 km/h (0 Bft)
17.11.2014 22:55 3,0 C 95 % 1006,8 hPa 0,0 l/m 0,0 km/h (0 Bft) SO 135 2,3 C 7,8 C 0,0 km/h (0 Bft)
17.11.2014 23:00 3,0 C 95 % 1006,8 hPa 0,0 l/m 0,0 km/h (0 Bft) SO 135 2,3 C 7,8 C 0,0 km/h (0 Bft)
17.11.2014 23:05 3,0 C 95 % 1006,8 hPa 0,0 l/m 0,0 km/h (0 Bft) SO 135 2,3 C 7,8 C 0,0 km/h (0 Bft)
17.11.2014 23:10 3,0 C 95 % 1006,8 hPa 0,0 l/m 0,0 km/h (0 Bft) SO 135 2,3 C 7,8 C 0,0 km/h (0 Bft)
17.11.2014 23:15 3,0 C 95 % 1006,8 hPa 0,0 l/m 0,0 km/h (0 Bft) SO 135 2,3 C 7,8 C 0,0 km/h (0 Bft)
17.11.2014 23:20 3,0 C 95 % 1006,8 hPa 0,0 l/m 0,0 km/h (0 Bft) SO 135 2,3 C 7,8 C 0,0 km/h (0 Bft)
17.11.2014 23:25 3,0 C 95 % 1006,8 hPa 0,0 l/m 0,0 km/h (0 Bft) SO 135 2,3 C 7,8 C 0,0 km/h (0 Bft)
17.11.2014 23:30 3,0 C 95 % 1006,8 hPa 0,0 l/m 0,0 km/h (0 Bft) SO 135 2,3 C 7,8 C 0,0 km/h (0 Bft)
17.11.2014 23:35 3,0 C 95 % 1006,8 hPa 0,0 l/m 0,0 km/h (0 Bft) SO 135 2,3 C 7,8 C 0,0 km/h (0 Bft)
17.11.2014 23:40 3,0 C 95 % 1006,8 hPa 0,0 l/m 0,0 km/h (0 Bft) SO 135 2,3 C 7,8 C 0,0 km/h (0 Bft)
17.11.2014 23:45 3,0 C 95 % 1006,8 hPa 0,0 l/m 0,0 km/h (0 Bft) SO 135 2,3 C 7,8 C 0,0 km/h (0 Bft)
17.11.2014 23:50 3,1 C 95 % 1006,8 hPa 0,0 l/m 0,0 km/h (0 Bft) SO 135 2,4 C 7,8 C 0,0 km/h (0 Bft)
17.11.2014 23:55 3,1 C 95 % 1006,7 hPa 0,0 l/m 0,0 km/h (0 Bft) SO 135 2,4 C 7,8 C 0,0 km/h (0 Bft)
_ Min-Zeit 06:10 14:25 17:50 - 23:55 - - 06:10 23:55 23:55
Minimum _ -2,3 C 78 % 1006,2 hPa - 0,0 km/h (0 Bft) - - -3,1 C 7,8 C 0,0 km/h (0 Bft)
_ Max-Zeit 13:55 23:55 10:30 23:55 23:55 - - 13:55 23:55 23:55
Maximum _ 8,0 C 95 % 1007,5 hPa 0,0 l/m 0,0 km/h
SO (0 Bft)
- - 5,5 C 7,8 C 0,0 km/h
SO (0 Bft)
Durchschnitt _ 1,9 C 93 % 1006,8 hPa #0,0 l/m 0,0 km/h (0 Bft) - - - 0,8 C 7,8 C 0,0 km/h (0 Bft)